This is the latest recevied weather packets stored in our database for station/object K1AWR. If no packets are shown the sender has not sent any weather packets the latest 10 day(s).
| Time | Temp. | Humidity | Pressure | Rain* | Wind** | Luminosity | Snow |
|---|---|---|---|---|---|---|---|
| 1777935337 | 18.33° C | 44% | 1008.5 hPa | 0 mm | - | 30 W/m² | - |
| 1777935035 | 18.89° C | 45% | 1008.5 hPa | 0 mm | - | 31 W/m² | - |
| 1777934731 | 18.89° C | 44% | 1008.3 hPa | 0 mm | - | 32 W/m² | - |
| 1777934428 | 18.89° C | 44% | 1008.4 hPa | 0 mm | - | 35 W/m² | - |
| 1777934125 | 18.89° C | 44% | 1008.3 hPa | 0 mm | - | 38 W/m² | - |
| 1777933821 | 19.44° C | 43% | 1008.5 hPa | 0 mm | - | 41 W/m² | - |
| 1777933518 | 19.44° C | 43% | 1008.3 hPa | 0 mm | - | 48 W/m² | - |
| 1777933215 | 19.44° C | 43% | 1008.3 hPa | 0 mm | - | 50 W/m² | - |
| 1777932913 | 20° C | 42% | 1008.3 hPa | 0 mm | - | 58 W/m² | - |
| 1777932609 | 20° C | 43% | 1008.4 hPa | 0 mm | - | 63 W/m² | - |
| 1777932306 | 20° C | 40% | 1008.4 hPa | 0 mm | - | 82 W/m² | - |
| 1777932002 | 20.56° C | 41% | 1008.4 hPa | 0 mm | - | 100 W/m² | - |
| 1777931699 | 20° C | 40% | 1008.4 hPa | 0 mm | - | 152 W/m² | - |
| 1777931396 | 20° C | 43% | 1008.4 hPa | 0 mm | - | 109 W/m² | - |
| 1777931092 | 19.44° C | 43% | 1008.4 hPa | 0 mm | - | 74 W/m² | - |
| 1777930789 | 20° C | 41% | 1008.4 hPa | 0 mm | - | 59 W/m² | - |
| 1777930485 | 20° C | 44% | 1008.4 hPa | 0 mm | - | 48 W/m² | - |
| 1777930183 | 20.56° C | 40% | 1008.4 hPa | 0 mm | - | 56 W/m² | - |
| 1777929878 | 21.11° C | 37% | 1008.4 hPa | 0 mm | - | 52 W/m² | - |
| 1777929576 | 22.22° C | 32% | 1008.1 hPa | 0 mm | - | 49 W/m² | - |
| 1777929272 | 22.22° C | 29% | 1008.3 hPa | 0 mm | - | 165 W/m² | - |
| 1777928970 | 22.22° C | 32% | 1008.3 hPa | 0 mm | - | 185 W/m² | - |
| 1777928667 | 22.22° C | 31% | 1008.4 hPa | 0 mm | - | 72 W/m² | - |
| 1777928364 | 22.78° C | 31% | 1008.3 hPa | 0 mm | - | 265 W/m² | - |
| 1777928061 | 23.89° C | 33% | 1008.4 hPa | 0 mm | - | 236 W/m² | - |
* Rain latest hour (hover to see other rain measurements)
** Current wind speed in m/s (hover to see current wind gust speed)